Selawik, AK

2:39 PM AKDT on September 24, 2017 (GMT -0800)
Selawik

Weather History for PASK - March, 2013

Change the Weather History Date:

Monday, March 25, 2013

  Actual Average Record
Temperature  
Mean Temperature -18 °F -  
Max Temperature -9 °F 4 °F 30 °F (1998)
Min Temperature -27 °F -6 °F -36 °F (2007)
Degree Days  
Heating Degree Days 83    
Moisture  
Dew Point -22 °F    
Average Humidity 66    
Maximum Humidity 100    
Minimum Humidity 48    
Precipitation  
Precipitation 0.00 in - - ()
Sea Level Pressure  
Sea Level Pressure 29.99 in    
Wind  
Wind Speed 9 mph (WSW)    
Max Wind Speed 16 mph    
Max Gust Speed 18 mph    
Visibility 8 miles    
Events      
Averages and records for this station are not official NWS values.
T = Trace of Precipitation, MM = Missing Value Source: NWS Daily Summary

Daily Weather History Graph

Daily Weather History Graph

Search for Another Location

Airport or City:

Trip Planner

Search our weather history database for the weather conditions in past years. The results will help you decide how hot, cold, wet, or windy it might be!

Date:

Astronomy

Mar. 25, 2013 Rise Set
Actual Time 8:18 AM AKDT 9:15 PM AKDT
Civil Twilight 7:24 AM AKDT 10:08 PM AKDT
Nautical Twilight 6:16 AM AKDT 11:17 PM AKDT
Astronomical Twilight 4:48 AM AKDT 12:48 AM AKDT
Moon 7:42 PM AKDT (3/25) 7:37 AM AKDT (3/25)
Length of Visible Light 14h 44m
Length of Day
12h 56m
Waxing Gibbous, 97% of the Moon is Illuminated
Mar 25
Waxing Gibbous
Mar 27
Full
Apr 2
Last Quarter
Apr 10
New
Apr 18
First Quarter

Hourly Weather History & Observations

Time (AKDT) Temp. Windchill Dew Point Humidity Pressure Visibility Wind Dir Wind Speed Gust Speed Precip Events Conditions
12:16 AM - - - N/A% 30.07 in 10.0 mi WSW 8.1 mph - N/A   Clear
12:36 AM - - - N/A% 30.07 in 10.0 mi WSW 8.1 mph - N/A   Clear
12:56 AM -23.8 °F -43.2 °F - N/A% 30.08 in 10.0 mi WSW 8.1 mph - N/A   Clear
1:16 AM -23.8 °F -44.5 °F - N/A% 30.08 in 10.0 mi WSW 9.2 mph - N/A   Clear
1:36 AM - - - N/A% 30.07 in 10.0 mi West 8.1 mph - N/A   Clear
1:56 AM -23.8 °F -43.2 °F - N/A% 30.07 in 10.0 mi West 8.1 mph - N/A   Clear
2:16 AM -22.0 °F -41.0 °F -29.2 °F 69% 30.07 in 10.0 mi West 8.1 mph - N/A   Clear
2:36 AM - - - N/A% 30.06 in 10.0 mi West 8.1 mph - N/A   Clear
2:56 AM -23.8 °F -43.2 °F - N/A% 30.07 in 10.0 mi WSW 8.1 mph - N/A   Clear
3:16 AM -23.8 °F -43.2 °F - N/A% 30.06 in 10.0 mi West 8.1 mph - N/A   Clear
3:36 AM - - - N/A% 30.06 in 10.0 mi WSW 9.2 mph - N/A   Clear
3:56 AM -23.8 °F -41.6 °F - N/A% 30.06 in 10.0 mi WSW 6.9 mph - N/A   Clear
4:36 AM -23.8 °F -43.2 °F - N/A% 30.06 in 10.0 mi WSW 8.1 mph - N/A   Clear
4:56 AM -23.8 °F -39.8 °F - N/A% 30.06 in 10.0 mi West 5.8 mph - N/A   Clear
5:16 AM -23.8 °F -39.8 °F - N/A% 30.06 in 10.0 mi West 5.8 mph - N/A   Clear
5:36 AM -23.8 °F -39.8 °F - N/A% 30.05 in 10.0 mi West 5.8 mph - N/A   Clear
5:56 AM -25.6 °F -45.4 °F - N/A% 30.04 in 10.0 mi WSW 8.1 mph - N/A   Clear
6:16 AM - - - N/A% 30.03 in 10.0 mi West 8.1 mph - N/A   Clear
6:36 AM -25.6 °F -43.8 °F - N/A% 30.03 in 10.0 mi West 6.9 mph - N/A   Clear
6:56 AM -27.4 °F -45.9 °F - N/A% 30.03 in 10.0 mi West 6.9 mph - N/A   Clear
7:16 AM -27.4 °F -49.0 °F - N/A% 30.03 in 10.0 mi West 9.2 mph - N/A   Clear
7:36 AM -27.4 °F -47.6 °F - N/A% 30.03 in 10.0 mi West 8.1 mph - N/A   Clear
7:56 AM - - - N/A% 30.02 in 10.0 mi WSW 9.2 mph - N/A   Clear
8:16 AM - - - N/A% 30.02 in 10.0 mi WSW 10.4 mph - N/A   Clear
8:36 AM - - - N/A% 30.01 in 10.0 mi West 9.2 mph - N/A   Clear
8:56 AM - - - N/A% 30.01 in 10.0 mi West 9.2 mph - N/A   Clear
9:16 AM - - - N/A% 30.01 in 8.0 mi West 9.2 mph - N/A   Clear
9:36 AM - - - N/A% 30.00 in 7.0 mi West 9.2 mph - N/A   Clear
9:56 AM -23.8 °F -45.8 °F - N/A% 30.00 in 8.0 mi WSW 10.4 mph - N/A   Clear
10:16 AM - - - N/A% 29.99 in 1.8 mi WSW 10.4 mph - N/A   Clear
10:36 AM -23.8 °F -43.2 °F - N/A% 29.99 in 1.5 mi WSW 8.1 mph - N/A   Clear
10:56 AM - - - N/A% 29.98 in 2.0 mi West 12.7 mph - N/A   Clear
11:16 AM - - - N/A% 29.98 in 2.0 mi West 12.7 mph - N/A   Clear
11:36 AM -22.0 °F -45.7 °F - N/A% 29.99 in 4.0 mi WSW 12.7 mph - N/A   Clear
11:56 AM -20.2 °F -41.3 °F - N/A% 29.98 in 4.0 mi West 10.4 mph - N/A   Clear
12:16 PM -20.2 °F -44.4 °F -23.8 °F 83% 29.98 in 4.0 mi West 13.8 mph - N/A   Clear
12:36 PM -20.2 °F -44.4 °F -29.2 °F 63% 29.97 in 5.0 mi WSW 13.8 mph - N/A   Clear
12:56 PM -18.4 °F -41.2 °F -27.4 °F 63% 29.97 in 4.0 mi West 12.7 mph 17.3 mph N/A   Clear
1:16 PM -18.4 °F -40.2 °F -18.4 °F 100% 29.97 in 2.0 mi WSW 11.5 mph - N/A   Scattered Clouds
1:36 PM -16.6 °F -37.9 °F - N/A% 29.97 in 4.0 mi WSW 11.5 mph 17.3 mph N/A   Partly Cloudy
1:56 PM -16.6 °F -36.8 °F -18.4 °F 92% 29.97 in 3.0 mi West 10.4 mph - N/A   Clear
2:16 PM -16.6 °F -37.9 °F -29.2 °F 53% 29.96 in 4.0 mi WSW 11.5 mph - N/A   Clear
2:36 PM -16.6 °F -38.9 °F -23.8 °F 70% 29.95 in 5.0 mi WSW 12.7 mph - N/A   Clear
2:56 PM -16.6 °F -41.4 °F -23.8 °F 70% 29.95 in 7.0 mi West 16.1 mph - N/A   Clear
3:16 PM -14.8 °F -36.6 °F -29.2 °F 48% 29.95 in 10.0 mi West 12.7 mph - N/A   Clear
3:36 PM -14.8 °F -35.6 °F - N/A% 29.95 in 10.0 mi West 11.5 mph - N/A   Clear
3:56 PM -14.8 °F -38.3 °F - N/A% 29.94 in 9.0 mi West 15.0 mph - N/A   Clear
4:16 PM -13.0 °F -35.2 °F - N/A% 29.94 in 10.0 mi West 13.8 mph - N/A   Clear
4:36 PM -11.2 °F -32.9 °F - N/A% 29.94 in 10.0 mi West 13.8 mph - N/A   Clear
4:56 PM -11.2 °F -34.4 °F - N/A% 29.94 in 10.0 mi West 16.1 mph - N/A   Clear
5:16 PM -11.2 °F -32.9 °F - N/A% 29.94 in 10.0 mi West 13.8 mph - N/A   Clear
5:36 PM -11.2 °F -32.9 °F - N/A% 29.94 in 10.0 mi West 13.8 mph - N/A   Clear
5:56 PM -11.2 °F -32.1 °F -25.6 °F 49% 29.93 in 10.0 mi West 12.7 mph 18.4 mph N/A   Clear
6:16 PM -9.4 °F -30.6 °F -23.8 °F 49% 29.94 in 10.0 mi West 13.8 mph - N/A   Partly Cloudy
6:36 PM -9.4 °F -27.9 °F -22.0 °F 54% 29.94 in 10.0 mi West 10.4 mph - N/A   Partly Cloudy
6:56 PM -9.4 °F -27.9 °F -20.2 °F 59% 29.94 in 10.0 mi West 10.4 mph - N/A   Clear
7:16 PM -9.4 °F -27.9 °F -20.2 °F 59% 29.94 in 10.0 mi West 10.4 mph - N/A   Clear
7:36 PM -11.2 °F -30.1 °F -20.2 °F 64% 29.94 in 10.0 mi West 10.4 mph - N/A   Clear
7:56 PM -11.2 °F -31.1 °F -18.4 °F 70% 29.94 in 10.0 mi West 11.5 mph - N/A   Clear
8:16 PM -11.2 °F -30.1 °F -18.4 °F 70% 29.94 in 10.0 mi West 10.4 mph - N/A   Clear
8:36 PM -11.2 °F -30.1 °F -18.4 °F 70% 29.94 in 10.0 mi West 10.4 mph - N/A   Scattered Clouds
8:56 PM -11.2 °F -30.1 °F -20.2 °F 64% 29.93 in 10.0 mi West 10.4 mph - N/A   Scattered Clouds
9:16 PM -11.2 °F -31.1 °F -22.0 °F 59% 29.94 in 10.0 mi West 11.5 mph - N/A   Mostly Cloudy
9:36 PM -11.2 °F -29.0 °F -18.4 °F 70% 29.94 in 10.0 mi West 9.2 mph - N/A   Overcast
9:56 PM -11.2 °F -27.8 °F -23.8 °F 54% 29.94 in 10.0 mi WSW 8.1 mph - N/A   Mostly Cloudy
10:16 PM -13.0 °F -30.0 °F -22.0 °F 64% 29.93 in 10.0 mi WSW 8.1 mph - N/A   Partly Cloudy
10:36 PM -13.0 °F -31.3 °F -22.0 °F 64% 29.94 in 10.0 mi WSW 9.2 mph - N/A   Clear
10:56 PM -13.0 °F -32.4 °F -20.2 °F 70% 29.93 in 10.0 mi WSW 10.4 mph - N/A   Clear
11:16 PM -13.0 °F -34.3 °F -18.4 °F 77% 29.93 in 10.0 mi WSW 12.7 mph - N/A   Clear
11:36 PM -13.0 °F -33.4 °F -23.8 °F 59% 29.93 in 10.0 mi WSW 11.5 mph - N/A   Clear
11:56 PM -13.0 °F -33.4 °F -18.4 °F 77% 29.94 in 5.0 mi WSW 11.5 mph - N/A   Clear